Location: Sawyer Lake
(45.2517°N, 88.7550°W)
Time: 01:38:01
(UTC-06:00)

Daily predictions for brighter satellites

Satellite Brightness Start Highest point End
(mag) Time Altitude Azimuth Time Altitude Azimuth Time Altitude Azimuth
ADEOS Rocket 4.4 02:38:00 10° NNE 02:41:51 36° NNE 02:41:51 36° NNE
CZ-2D R/B 4.4 02:55:31 10° N 02:56:43 17° N 02:56:43 17° N
Cosmos 2369 Rocket 3.4 03:26:32 34° N 03:26:32 34° N 03:29:45 10° NNE
MOS 1 Rocket 4.5 03:24:05 10° NNE 03:28:01 46° NE 03:28:01 46° NE
ERS-2 4.4 03:43:44 10° NE 03:45:50 25° ENE 03:45:50 25° ENE
ATLAS 5 CENTAUR R/B 2.8 03:51:29 41° N 03:51:29 41° N 03:55:13 10° NNE
Cosmos 1140 Rocket 4.0 03:45:37 10° NNW 03:50:48 58° ENE 03:55:58 10° SE
Cosmos 1943 Rocket 2.4 03:56:41 59° N 03:56:41 59° N 04:01:22 10° NNE
IRAS Rocket 4.1 03:53:45 10° NNE 03:59:17 86° ESE 03:59:33 81° S
ADEOS II 2.1 03:56:10 10° NNE 04:01:28 77° ESE 04:02:05 67° SSE
CZ-4C R/B 2.4 04:00:42 57° SSE 04:01:29 63° ESE 04:07:24 10° NE
Lacrosse 5 2.2 04:04:44 55° N 04:04:44 55° N 04:09:09 10° NE
Okean O Rocket 2.9 04:01:38 10° N 04:03:58 31° N 04:03:58 31° N
Okean 1-7 3.5 04:14:32 40° SSE 04:15:45 57° E 04:19:56 10° NNE
CZ-4B R/B 3.1 04:11:51 10° NNE 04:17:29 76° WNW 04:18:49 54° SW
Cosmos 2221 Rocket 3.5 04:24:45 52° S 04:25:52 88° E 04:30:27 10° N
PSLV R/B 4.0 04:25:03 10° N 04:28:18 47° NNW 04:28:18 47° NNW
ADEOS Rocket 4.3 04:24:19 10° N 04:28:49 24° NW 04:28:49 24° NW
Meteor 1-20 Rocket 4.4 04:25:39 10° N 04:31:22 72° ENE 04:36:56 10° SSE
Cosmos 1850 Rocket 4.0 04:27:22 10° NNW 04:32:45 85° ENE 04:38:03 10° SSE
Lacrosse 5 rocket 1.5 04:40:15 42° NNW 04:41:08 55° NE 04:44:40 10° ESE
Cosmos 1782 Rocket 3.6 04:36:59 10° NNW 04:45:26 11° S 04:45:39 10° S
Cosmos 1606 3.9 04:39:35 10° SSE 04:43:16 43° E 04:47:00 10° NNE
USA 234 3.5 04:36:53 10° NE 04:43:24 66° SE 04:48:27 18° SW
Abrixas 3.4 04:45:42 41° NNE 04:45:42 41° NNE 04:48:12 10° E
Cosmos 1420 Rocket 3.8 04:43:53 26° SSW 04:46:51 77° WNW 04:52:04 10° NNE
Cosmos 2297 Rocket 3.4 04:44:15 10° NNW 04:49:38 42° ENE 04:54:58 10° SE
CZ-4B R/B 3.8 04:49:21 10° N 04:53:23 79° WNW 04:57:35 10° SSW
Cosmos 1656 Rocket 3.8 04:51:34 31° WSW 04:54:04 53° WNW 04:59:39 10° NNE
GEOS 3 Rocket 3.8 04:49:39 10° SSE 04:54:32 46° WSW 04:57:12 25° WNW
Cosmos 1745 Rocket 3.8 04:50:47 10° NNW 04:56:55 75° W 05:03:01 10° S
Meteor PRIRODA 3.9 04:53:40 10° N 04:57:11 44° WNW 04:57:21 44° W
SKYMED 2 3.8 04:53:18 10° SSE 04:57:37 70° ENE 05:01:57 10° N
NOAA 6 4.3 04:52:39 10° NNE 04:57:50 72° ESE 05:02:57 10° S
Cosmos 1417 Rocket 4.5 04:53:16 10° SSW 04:59:17 55° WNW 05:05:20 10° N
Cosmos 1782 2.7 04:56:42 10° S 05:00:40 87° W 05:04:40 10° N
Cosmos 1633 3.6 04:59:24 10° N 05:02:55 48° ENE 05:06:25 10° SSE
ATLAS 3B R/B 3.1 04:56:32 10° SSW 05:04:05 74° ESE 05:11:21 10° NE
Okean-O 2.7 05:03:23 10° N 05:07:43 54° WNW 05:12:02 10° SSW
Meteor 2-6 Rocket 4.2 05:03:35 10° S 05:08:57 80° E 05:14:25 10° NNE
Cosmos 2219 3.6 05:03:53 10° NW 05:09:04 38° WSW 05:14:12 10° S
Cosmos 2369 Rocket 4.0 05:08:20 14° NW 05:09:16 14° NW 05:12:14 10° N
Cosmos 2227 Rocket 2.4 05:04:42 10° NNW 05:10:25 75° ENE 05:16:05 10° SSE
Tiangong 1 1.3 05:12:02 38° SW 05:12:44 50° S 05:15:36 10° ESE
Meteor 2-10 Rocket 4.2 05:12:23 23° WSW 05:14:18 30° WNW 05:18:49 10° N
Meteor 1-31 Rocket 3.2 05:11:07 10° N 05:14:47 40° WNW 05:17:22 17° SW
Cosmos 1452 Rocket 4.4 05:13:34 23° W 05:15:34 30° WNW 05:20:14 10° N
Okean 2 Rocket 3.7 05:11:55 10° NNW 05:15:48 31° W 05:19:41 10° SSW
Cosmos 1110 Rocket 4.4 05:13:56 10° S 05:19:01 64° ESE 05:24:10 10° NNE
Thor Agena Rocket 3.9 05:14:17 10° S 05:19:12 42° W 05:24:06 10° NNW
Cosmos 1607 3.9 05:14:28 10° SW 05:20:36 88° NW 05:26:50 10° NE
ERS-2 3.5 05:17:50 10° NNW 05:20:38 21° WNW 05:20:38 21° WNW
Okean 1 Rocket 3.7 05:22:34 10° N 05:26:57 61° E 05:31:16 10° SSE
ATLAS 5 CENTAUR R/B 3.8 05:33:02 11° WNW 05:35:57 17° NNW 05:39:26 10° NNE
Cosmos 2151 Rocket 4.0 05:31:46 10° NNW 05:35:59 40° W 05:40:10 10° SSW
ADEOS II 3.6 05:37:17 10° NNW 05:40:34 17° WNW 05:43:03 13° W
Cosmos 1943 Rocket 3.9 05:38:13 12° WNW 05:40:37 15° NW 05:43:42 10° N
Cosmos 1697 Rocket 4.3 05:36:24 10° S 05:41:37 39° ESE 05:46:51 10° NE
COSMO-SKYMED 1 3.1 05:41:46 10° SSW 05:45:47 36° W 05:49:49 10° NNW
Meteor 1-11 Rocket 3.8 05:41:40 10° NNW 05:47:35 66° W 05:53:22 10° S
Lacrosse 5 3.3 05:43:57 11° WNW 05:47:58 25° NNW 05:52:08 10° NE
CZ-4C R/B 3.2 05:45:54 12° W 05:50:29 31° NNW 05:56:01 10° NNE
Meteor 1-28 Rocket 3.7 05:47:39 10° SSW 05:51:09 38° W 05:54:41 10° NNW
CZ-4 R/B 2.6 05:53:23 10° NNE 05:57:27 50° E 06:01:24 10° S
Radarsat Rocket 4.4 05:52:15 10° N 05:59:17 55° WNW 06:05:28 10° SW
ISS -0.4 05:57:32 10° S 05:59:36 16° SE 06:01:40 10° E
CSL-04 Rocket 3.7 05:56:49 10° NNE 06:02:14 83° WNW 06:07:43 10° SSW
PAYLOAD A 3.9 05:57:56 10° NNE 06:02:42 87° WNW 06:07:36 10° SSW
